Regional Weather Roundup
Issued by NWS

Home | Current Version | Previous Version | Text Only | Print | Product List | Glossary On
Versions: 1 2 3 4 5 6 7 8 9 10 11 12 13 14 15 16 17 18 19 20 21 22 23 24 25 26 27 28 29 30 31 32 33 34 35 36 37 38 39 40 41 42 43 44 45 46 47 48 49 50
000
ASUS43 KDTX 151610
RWRMI
MICHIGAN HOURLY REGIONAL WEATHER ROUNDUP
NATIONAL WEATHER SERVICE DETROIT/PONTIAC MI
1100 AM EST FRI DEC 15 2017

NOTE: "FAIR" INDICATES FEW OR NO CLOUDS BELOW 12,000 FEET WITH NO
SIGNIFICANT WEATHER AND/OR OBSTRUCTION TO VISIBILITY.

MIZ047>049-052>055-059>063-066>070-074>076-081>083-151700-
SOUTHEAST LOWER MICHIGAN

CITY           SKY/WX    TMP DP  RH WIND       PRES   REMARKS
ADRIAN         LGT SNOW  22  17  81 SW12      29.87F WCI  10
ALMA           LGT SNOW  23  21  91 SW9       29.79S WCI  13
ANN ARBOR      LGT SNOW  23  17  78 S15       29.83F WCI  10
BAD AXE        LGT SNOW  20  17  88 S12       29.77F WCI   8
CARO           LGT SNOW  21  18  87 S9        29.77F WCI  11
DETROIT CITY   LGT SNOW  23  16  74 SW15      29.85F WCI  10
DETROIT        LGT SNOW  27  18  69 SW17      29.87F WCI  14
FLINT          LGT SNOW  20  16  84 SW12      29.80F VSB 3/4 WCI   8
GROSSE ILE     LGT SNOW  24  17  73 SW13G18   29.87F WCI  13
HILLSDALE      LGT SNOW  23  18  80 SW13      29.82F WCI  11
HOWELL         SNOW      21  19  91 SW10      29.80F VSB 1/2 WCI  10

CITY           SKY/WX    TMP DP  RH WIND       PRES   REMARKS
JACKSON        LGT SNOW  23  16  74 SW14      29.82F WCI  11
LAMBERTVILLE   FLURRIES  25  16  69 SW8       29.88F WCI  16
LANSING        LGT SNOW  22  18  85 SW15G23   29.80F FOG     WCI   9
LAPEER         LGT SNOW  22  15  75 SW12      29.80F WCI  10
MASON          LGT SNOW  23  17  77 SW9       29.81S WCI  13
MONROE         FLURRIES  25  15  66 SW12G17   29.87F WCI  14
MT. CLEMENS    LGT SNOW  23  18  80 SW14      29.82F DRFTSNOWWCI  11
PONTIAC        LGT SNOW  20  16  84 SW12      29.80F VSB 3/4 WCI   8
PORT HOPE        N/A     21  17  84 S8        29.76F WCI  11
PORT HURON     FLURRIES  23  14  68 SW10G20   29.83F WCI  12
TRI CITIES     LGT SNOW  22  20  92 SW14      29.78S FOG     WCI   9
MIDLAND        LGT SNOW  23  19  85 SW8       29.77S WCI  14
TROY           LGT SNOW  23  16  74 SW10G17   29.85F WCI  12
SAGINAW HB     LGT SNOW  21  19  93 SW14      29.78S VSB 3/4 WCI   8
$$
MIZ043>046-050>051-056>058-064>065-071>073-077>080-151700-
SOUTHWEST LOWER MICHIGAN

CITY           SKY/WX    TMP DP  RH WIND       PRES   REMARKS
BATTLE CREEK   LGT SNOW  22  18  85 SW15      29.82S FOG     WCI   9
BENTON HARBOR  LGT SNOW  27  15  61 W18G29    29.89R WCI  14
BIG RAPIDS     LGT SNOW  22  17  81 W10       29.76R WCI  11
COLDWATER      FLURRIES  22  19  85 SW14G20   29.85S WCI  10
HOLLAND        LGT SNOW  26  20  77 NW15G23   29.84R WCI  14
GRAND RAPIDS   SNOW      25  23  92 NW13      29.80R VSB 1/2 WCI  14
IONIA          SNOW      23  20  89 SW9       29.78S VSB 1/2 WCI  13
KALAMAZOO      LGT SNOW  24  18  77 SW13      29.83F WCI  12
LUDINGTON      FLURRIES  23  13  67 NW10G18   29.80R WCI  12
MARSHALL       FLURRIES  22  17  83 SW14G21   29.82F WCI   9
MOUNT PLEASANT LGT SNOW  25  19  78 W8        29.76S WCI  16
MUSKEGON       LGT SNOW  27  18  69 W18G28    29.82S WCI  14
SOUTH HAVEN    CLOUDY    28  17  63 W15G25    29.86R WCI  17
$$
MIZ016>042-151700-
NORTHERN LOWER MICHIGAN

CITY           SKY/WX    TMP DP  RH WIND       PRES   REMARKS
ALPENA         LGT SNOW  22  19  89 S8        29.71F FOG     WCI  12
BEAVER ISLAND  CLOUDY    25  21  83 W8G17     29.69F WCI  16
BELLAIRE       HVY SNOW  24  23  98 SW3       29.72S VSB<1/4
CADILLAC       LGT SNOW  21  18  89 W8        29.70R WCI  11
CHARLEVOIX     CLOUDY    25  18  72 W12       29.72S WCI  15
FRANKFORT      FLURRIES  25  17  73 NW10G22   29.76R WCI  15
GAYLORD        LGT SNOW  20  15  81 SW10      29.65F WCI   9
GRAYLING       LGT SNOW  21  16  81 SW7       29.69F WCI  13
HARBOR SPRINGS LGT SNOW  22  20  91 CALM      29.69S
HOUGHTON LAKE  LGT SNOW  21  16  81 W9        29.71S WCI  11
MANISTEE       FLURRIES  23  16  74 W14       29.78R WCI  11
OSCODA         SNOW      23  19  85 SW15      29.73F VSB 1/2 WCI  10
PELLSTON       LGT SNOW  21  19  92 NW5       29.69S FOG     WCI  15
ROGERS CITY    CLOUDY    22  18  84 SW12      29.70F WCI  10
TRAVERSE CITY  LGT SNOW  24  19  81 W8        29.73S WCI  15
$$
MIZ007>008-015-151700-
EASTERN UPPER MICHIGAN

CITY           SKY/WX    TMP DP  RH WIND       PRES   REMARKS
KINROSS        CLOUDY    21  17  84 W3        29.67S
MACKINAC ISLAN PTSUNNY   23  17  77 W6        29.67F WCI  16
NEWBERRY       LGT SNOW  18  17  95 SW6       29.65F WCI  10
S. S. MARIE    MOSUNNY   18  14  84 E3        29.66F
MUNISING         N/A     21  20  96 W8        29.70R WCI  11
$$
MIZ004>006-011>014-085-151700-
CENTRAL UPPER MICHIGAN

CITY           SKY/WX    TMP DP  RH WIND       PRES   REMARKS
MANISTIQUE     CLOUDY    18  11  73 W13       29.70S WCI   5
ESCANABA       CLOUDY    19  12  74 W15       29.75R WCI   5
MENOMINEE      CLOUDY    17   9  70 NW8       29.81S WCI   7
SAWYER-GWINN   CLOUDY    18  14  86 W10       29.70S WCI   6
$$
MIZ001>003-009>011-084-151700-
WESTERN UPPER MICHIGAN

CITY           SKY/WX    TMP DP  RH WIND       PRES   REMARKS
IRON MOUNTAIN  CLOUDY    16   9  74 W8        29.74S WCI   5
HOUGHTON       LGT SNOW  18   9  68 N10       29.73R WCI   6
COPPER HARBOR    N/A     21  14  74 NE21      29.74R WCI   5
IRONWOOD       LGT SNOW  13  10  88 W13       29.80R FOG     WCI  -2
$$

ABBREVIATIONS USED IN REMARKS
   TC - TEMPERATURE IN CELSIUS
  WCI - WIND CHILL INDEX
   HX - HEAT INDEX
  VSB - VISIBILITY





USA.gov is the U.S. government's official web portal to all federal, state and local government web resources and services.